Location: 22
(39.7117°N, 89.5929°W)
Time: 09:11:46
(UTC-05:00)

Vanguard 1 Rocket - Pass Details

Date: 11 February 2023
Orbit: 652 x 4223 km, 34.3° (Epoch: 24 March)

Event Time Altitude Azimuth Distance (km) Brightness Sun altitude
Rises 14:00:52 0° 274° (W) 4,669 11.4 30.8°
Reaches altitude 10° 14:03:22 10° 270° (W) 4,010 11.2 30.5°
Maximum altitude 14:14:37 62° 194° (SSW) 2,894 11.0 29.3°
Drops below altitude 10° 14:35:55 10° 121° (ESE) 7,073 11.9 26.9°
Sets 14:42:12 0° 118° (ESE) 8,346 12.2 26.1°
